Year,Month,Day,Hour,Minute,Value (Times are PST for temperature in C)
2014,08,04,07,27,16.90
2014,08,04,07,28,16.80
2014,08,04,07,29,16.80
2014,08,04,07,30,16.70
2014,08,04,07,31,16.70
2014,08,04,07,32,16.80
2014,08,04,07,33,16.80
2014,08,04,07,34,16.80
2014,08,04,07,35,16.90
2014,08,04,07,36,17.00
2014,08,04,07,37,17.10
2014,08,04,07,38,17.20
2014,08,04,07,39,17.30
2014,08,04,07,40,17.30
2014,08,04,07,41,17.50
2014,08,04,07,42,17.60
2014,08,04,07,43,17.70
2014,08,04,07,44,17.80
2014,08,04,07,45,17.90
2014,08,04,07,46,17.90
2014,08,04,07,47,17.90
2014,08,04,07,48,17.90
2014,08,04,07,49,17.90
2014,08,04,07,50,17.90
2014,08,04,07,51,17.90
2014,08,04,07,52,17.90
2014,08,04,07,53,17.80
2014,08,04,07,54,17.80
2014,08,04,07,55,17.80
2014,08,04,07,56,17.80
2014,08,04,07,57,17.70
2014,08,04,07,58,17.80
2014,08,04,07,59,17.80
2014,08,04,08,00,17.90
2014,08,04,08,01,17.90
2014,08,04,08,02,17.90
2014,08,04,08,03,18.10
2014,08,04,08,04,18.20
2014,08,04,08,05,18.20
2014,08,04,08,06,18.30
2014,08,04,08,07,18.40
2014,08,04,08,08,18.50
2014,08,04,08,09,18.50
2014,08,04,08,10,18.60
2014,08,04,08,11,18.70
2014,08,04,08,12,18.80
2014,08,04,08,13,18.90
2014,08,04,08,14,18.90
2014,08,04,08,15,19.10
2014,08,04,08,16,19.10
2014,08,04,08,17,19.20
2014,08,04,08,18,19.30
2014,08,04,08,19,19.30
2014,08,04,08,20,19.30
2014,08,04,08,21,19.30
2014,08,04,08,22,19.30
2014,08,04,08,23,19.20
2014,08,04,08,24,19.10
2014,08,04,08,25,19.10
2014,08,04,08,26,19.10
2014,08,04,08,27,19.10
2014,08,04,08,28,19.10
2014,08,04,08,29,19.10
2014,08,04,08,30,18.90
2014,08,04,08,31,18.90
2014,08,04,08,32,18.90
2014,08,04,08,33,18.90
2014,08,04,08,34,19.10
2014,08,04,08,35,19.10
2014,08,04,08,36,19.10
2014,08,04,08,37,19.10
2014,08,04,08,38,19.10
2014,08,04,08,39,19.10
2014,08,04,08,40,19.10
2014,08,04,08,41,19.20
2014,08,04,08,42,19.20
2014,08,04,08,43,19.20
2014,08,04,08,44,19.30
2014,08,04,08,45,19.30
2014,08,04,08,46,19.30
2014,08,04,08,47,19.40
2014,08,04,08,48,19.40
2014,08,04,08,49,19.50
2014,08,04,08,50,19.60
2014,08,04,08,51,19.70
2014,08,04,08,52,19.70
2014,08,04,08,53,19.80
2014,08,04,08,54,19.90
2014,08,04,08,55,20.10
2014,08,04,08,56,20.20
2014,08,04,08,57,20.20
2014,08,04,08,58,20.30
2014,08,04,08,59,20.50
2014,08,04,09,00,20.60
2014,08,04,09,01,20.80
2014,08,04,09,02,20.90
2014,08,04,09,03,21.00
2014,08,04,09,04,21.10
2014,08,04,09,05,21.20
2014,08,04,09,06,21.30
2014,08,04,09,07,21.30
2014,08,04,09,08,21.30
2014,08,04,09,09,21.30
2014,08,04,09,10,21.30
2014,08,04,09,11,21.30
2014,08,04,09,12,21.30
2014,08,04,09,13,21.30
2014,08,04,09,14,21.30
2014,08,04,09,15,21.30
2014,08,04,09,16,21.40
2014,08,04,09,17,21.60
2014,08,04,09,18,21.60
2014,08,04,09,19,21.60
2014,08,04,09,20,21.70
2014,08,04,09,21,21.80
2014,08,04,09,22,21.90
2014,08,04,09,23,22.00
2014,08,04,09,24,22.00
2014,08,04,09,25,22.10
2014,08,04,09,26,22.20
2014,08,04,09,27,22.20
2014,08,04,09,28,22.30
2014,08,04,09,29,22.40
2014,08,04,09,30,22.40
2014,08,04,09,31,22.40
2014,08,04,09,32,22.40
2014,08,04,09,33,22.40
2014,08,04,09,34,22.40
2014,08,04,09,35,22.40
2014,08,04,09,36,22.50
2014,08,04,09,38,22.60
2014,08,04,09,39,22.60
2014,08,04,09,40,22.70
2014,08,04,09,41,22.80
2014,08,04,09,42,22.80
2014,08,04,09,43,22.90
2014,08,04,09,44,22.90
2014,08,04,09,45,22.90
2014,08,04,09,46,22.90
2014,08,04,09,47,22.90
2014,08,04,09,48,22.90
2014,08,04,09,49,22.90
2014,08,04,09,50,22.90
2014,08,04,09,51,23.10
2014,08,04,09,52,23.20
2014,08,04,09,53,23.30
2014,08,04,09,54,23.30
2014,08,04,09,55,23.40
2014,08,04,09,56,23.60
2014,08,04,09,57,23.70
2014,08,04,09,58,23.70
2014,08,04,09,59,23.70
2014,08,04,10,00,23.70
2014,08,04,10,01,23.80
2014,08,04,10,02,23.80
2014,08,04,10,03,23.80
2014,08,04,10,04,23.90
2014,08,04,10,05,24.10
2014,08,04,10,06,24.10
2014,08,04,10,07,24.10
2014,08,04,10,08,24.10
2014,08,04,10,09,24.10
2014,08,04,10,11,24.10
2014,08,04,10,12,24.10
2014,08,04,10,13,24.10
2014,08,04,10,14,24.10
2014,08,04,10,15,24.20
2014,08,04,10,16,24.30
2014,08,04,10,17,24.40
2014,08,04,10,18,24.50
2014,08,04,10,19,24.60
2014,08,04,10,20,24.70
2014,08,04,10,21,24.70
2014,08,04,10,22,24.80
2014,08,04,10,23,24.90
2014,08,04,10,24,24.90
2014,08,04,10,25,24.90
2014,08,04,10,26,24.90
2014,08,04,10,27,24.90
2014,08,04,10,28,24.90
2014,08,04,10,29,24.90
2014,08,04,10,30,25.00
2014,08,04,10,31,25.00
2014,08,04,10,32,25.10
2014,08,04,10,33,25.10
2014,08,04,10,34,25.20
2014,08,04,10,35,25.30
2014,08,04,10,36,25.30
2014,08,04,10,37,25.40
2014,08,04,10,38,25.40
2014,08,04,10,39,25.50
2014,08,04,10,40,25.60
2014,08,04,10,41,25.60
2014,08,04,10,42,25.60
2014,08,04,10,43,25.60
2014,08,04,10,44,25.50
2014,08,04,10,45,25.60
2014,08,04,10,46,25.70
2014,08,04,10,47,25.80
2014,08,04,10,48,25.80
2014,08,04,10,49,25.90
2014,08,04,10,50,26.00
2014,08,04,10,51,26.10
2014,08,04,10,52,26.20
2014,08,04,10,53,26.30
2014,08,04,10,54,26.30
2014,08,04,10,55,26.40
2014,08,04,10,56,26.60
2014,08,04,10,57,26.70
2014,08,04,10,58,26.80
2014,08,04,10,59,26.80
2014,08,04,11,00,26.90
2014,08,04,11,01,27.10
2014,08,04,11,02,27.10
2014,08,04,11,03,27.20
2014,08,04,11,04,27.30
2014,08,04,11,05,27.30
2014,08,04,11,06,27.30
2014,08,04,11,07,27.40
2014,08,04,11,08,27.40
2014,08,04,11,09,27.30
2014,08,04,11,10,27.30
2014,08,04,11,11,27.20
2014,08,04,11,12,27.20
2014,08,04,11,13,27.10
2014,08,04,11,14,27.10
2014,08,04,11,15,26.90
2014,08,04,11,16,26.90
2014,08,04,11,17,26.80
2014,08,04,11,18,26.80
2014,08,04,11,19,26.80
2014,08,04,11,20,26.80
2014,08,04,11,21,26.80
2014,08,04,11,22,26.90
2014,08,04,11,23,26.90
2014,08,04,11,24,26.90
2014,08,04,11,25,27.10
2014,08,04,11,26,27.10
2014,08,04,11,27,27.10
2014,08,04,11,28,26.90
2014,08,04,11,29,26.90
2014,08,04,11,30,26.90
2014,08,04,11,31,26.90
2014,08,04,11,32,27.10
2014,08,04,11,33,26.90
2014,08,04,11,34,26.90
2014,08,04,11,35,26.90
2014,08,04,11,36,27.10
2014,08,04,11,37,27.20
2014,08,04,11,38,27.20
2014,08,04,11,39,27.30
2014,08,04,11,40,27.30
2014,08,04,11,41,27.40
2014,08,04,11,42,27.40
2014,08,04,11,43,27.60
2014,08,04,11,44,27.70
2014,08,04,11,45,27.70
2014,08,04,11,46,27.70
2014,08,04,11,47,27.70
2014,08,04,11,48,27.70
2014,08,04,11,49,27.80
2014,08,04,11,50,27.90
2014,08,04,11,51,28.00
2014,08,04,11,52,28.00
2014,08,04,11,53,27.90
2014,08,04,11,54,27.90
2014,08,04,11,55,27.80
2014,08,04,11,56,27.70
2014,08,04,11,57,27.60
2014,08,04,11,58,27.40
2014,08,04,11,59,27.40
2014,08,04,12,00,27.30
2014,08,04,12,01,27.30
2014,08,04,12,02,27.30
2014,08,04,12,03,27.30
2014,08,04,12,04,27.30
2014,08,04,12,05,27.30
2014,08,04,12,06,27.30
2014,08,04,12,07,27.30
2014,08,04,12,08,27.30
2014,08,04,12,09,27.30
2014,08,04,12,10,27.30
2014,08,04,12,11,27.30
2014,08,04,12,12,27.30
2014,08,04,12,13,27.30
2014,08,04,12,14,27.30
2014,08,04,12,15,27.30
2014,08,04,12,16,27.30
2014,08,04,12,17,27.30
2014,08,04,12,18,27.20
2014,08,04,12,19,27.20
2014,08,04,12,20,27.20
2014,08,04,12,21,27.20
2014,08,04,12,22,27.20
2014,08,04,12,23,27.30
2014,08,04,12,24,27.30
2014,08,04,12,25,27.20
2014,08,04,12,26,27.20
2014,08,04,12,27,27.20
2014,08,04,12,28,27.20
2014,08,04,12,29,27.10
2014,08,04,12,30,27.10
2014,08,04,12,31,26.80
2014,08,04,12,32,26.80
2014,08,04,12,33,26.80
2014,08,04,12,34,26.80
2014,08,04,12,35,26.80
2014,08,04,12,36,26.80
2014,08,04,12,37,26.90
2014,08,04,12,38,26.90
2014,08,04,12,39,27.10
2014,08,04,12,40,27.10
2014,08,04,12,41,27.20
2014,08,04,12,42,27.20
2014,08,04,12,43,27.10
2014,08,04,12,44,27.10
2014,08,04,12,45,26.90
2014,08,04,12,46,26.90
2014,08,04,12,47,26.90
2014,08,04,12,48,26.80
2014,08,04,12,49,26.80
2014,08,04,12,50,26.80
2014,08,04,12,51,26.80
2014,08,04,12,52,26.80
2014,08,04,12,53,26.80
2014,08,04,12,54,26.80
2014,08,04,12,55,26.80
2014,08,04,12,56,26.90
2014,08,04,12,57,27.10
2014,08,04,12,58,27.20
2014,08,04,12,59,27.30
2014,08,04,13,00,27.30
2014,08,04,13,01,27.40
2014,08,04,13,02,27.60
2014,08,04,13,03,27.70
2014,08,04,13,04,27.70
2014,08,04,13,05,27.80
2014,08,04,13,06,27.80
2014,08,04,13,07,27.90
2014,08,04,13,08,27.90
2014,08,04,13,09,28.00
2014,08,04,13,10,28.10
2014,08,04,13,11,28.20
2014,08,04,13,12,28.30
2014,08,04,13,13,28.40
2014,08,04,13,14,28.60
2014,08,04,13,15,28.70
2014,08,04,13,16,28.80
2014,08,04,13,17,28.90
2014,08,04,13,18,28.90
2014,08,04,13,19,29.20
2014,08,04,13,20,29.40
2014,08,04,13,21,29.50
2014,08,04,13,22,29.70
2014,08,04,13,23,29.80
2014,08,04,13,24,30.10
2014,08,04,13,25,30.20
2014,08,04,13,26,30.30
2014,08,04,13,27,30.60
2014,08,04,13,28,30.80
2014,08,04,13,29,31.00
2014,08,04,13,30,31.20
2014,08,04,13,31,31.30
2014,08,04,13,32,31.40
2014,08,04,13,33,31.60
2014,08,04,13,34,31.80
2014,08,04,13,35,31.90
2014,08,04,13,36,32.10
2014,08,04,13,37,32.20
2014,08,04,13,38,32.30
2014,08,04,13,39,32.30
2014,08,04,13,40,32.40
2014,08,04,13,41,32.40
2014,08,04,13,42,32.40
2014,08,04,13,43,32.50
2014,08,04,13,44,32.50
2014,08,04,13,45,32.60
2014,08,04,13,46,32.50
2014,08,04,13,47,32.40
2014,08,04,13,48,32.40
2014,08,04,13,49,32.40
2014,08,04,13,50,32.30
2014,08,04,13,51,32.30
2014,08,04,13,52,32.30
2014,08,04,13,53,32.30
2014,08,04,13,54,32.20
2014,08,04,13,55,32.20
2014,08,04,13,56,32.10
2014,08,04,13,57,31.90
2014,08,04,13,58,31.80
2014,08,04,13,59,31.80
2014,08,04,14,00,31.70
2014,08,04,14,01,31.70
2014,08,04,14,02,31.70
2014,08,04,14,03,31.70
2014,08,04,14,04,31.60
2014,08,04,14,05,31.40
2014,08,04,14,06,31.40
2014,08,04,14,07,31.40
2014,08,04,14,08,31.40
2014,08,04,14,09,31.40
2014,08,04,14,10,31.40
2014,08,04,14,11,31.40
2014,08,04,14,12,31.60
2014,08,04,14,13,31.40
2014,08,04,14,14,31.60
2014,08,04,14,15,31.60
2014,08,04,14,16,31.60
2014,08,04,14,17,31.60
2014,08,04,14,18,31.70
2014,08,04,14,19,31.70
2014,08,04,14,20,31.80
2014,08,04,14,21,31.80
2014,08,04,14,22,31.80
2014,08,04,14,23,31.80
2014,08,04,14,24,31.80
2014,08,04,14,25,31.80
2014,08,04,14,26,31.80
2014,08,04,14,27,31.70
2014,08,04,14,28,31.70
2014,08,04,14,29,31.70
2014,08,04,14,30,31.70
2014,08,04,14,31,31.70
2014,08,04,14,32,31.70
2014,08,04,14,33,31.70
2014,08,04,14,34,31.80
2014,08,04,14,35,31.90
2014,08,04,14,36,32.10
2014,08,04,14,37,32.20
2014,08,04,14,38,32.30
2014,08,04,14,39,32.40
2014,08,04,14,40,32.50
2014,08,04,14,41,32.60
2014,08,04,14,42,32.80
2014,08,04,14,43,32.90
2014,08,04,14,44,33.00
2014,08,04,14,45,33.10
2014,08,04,14,46,33.20
2014,08,04,14,47,33.40
2014,08,04,14,48,33.40
2014,08,04,14,49,33.50
2014,08,04,14,50,33.60
2014,08,04,14,51,33.70
2014,08,04,14,52,33.80
2014,08,04,14,53,33.80
2014,08,04,14,54,34.00
2014,08,04,14,55,34.10
2014,08,04,14,56,34.10
2014,08,04,14,57,34.00
2014,08,04,14,58,34.00
2014,08,04,14,59,34.00
2014,08,04,15,00,34.00
2014,08,04,15,01,33.80
2014,08,04,15,02,33.70
2014,08,04,15,03,33.70
2014,08,04,15,04,33.60
2014,08,04,15,05,33.60
2014,08,04,15,06,33.50
2014,08,04,15,07,33.50
2014,08,04,15,08,33.50
2014,08,04,15,09,33.50
2014,08,04,15,10,33.50
2014,08,04,15,11,33.50
2014,08,04,15,12,33.50
2014,08,04,15,13,33.60
2014,08,04,15,14,33.60
2014,08,04,15,15,33.70
2014,08,04,15,16,33.80
2014,08,04,15,17,33.80
2014,08,04,15,18,34.00
2014,08,04,15,19,34.10
2014,08,04,15,20,34.10
2014,08,04,15,21,34.10
2014,08,04,15,22,34.10
2014,08,04,15,23,34.10
2014,08,04,15,24,34.10
2014,08,04,15,25,34.00
2014,08,04,15,26,34.00
2014,08,04,15,27,34.00
2014,08,04,15,28,34.00
2014,08,04,15,29,34.00
2014,08,04,15,30,34.00
2014,08,04,15,31,33.80
2014,08,04,15,32,33.80
2014,08,04,15,33,33.80
2014,08,04,15,34,33.80
2014,08,04,15,35,33.80
2014,08,04,15,36,33.70
2014,08,04,15,37,33.80
2014,08,04,15,38,34.00
2014,08,04,15,39,33.80
2014,08,04,15,40,34.00
2014,08,04,15,41,34.00
2014,08,04,15,42,34.00
2014,08,04,15,43,34.10
2014,08,04,15,44,34.10
2014,08,04,15,45,34.20
2014,08,04,15,46,34.30
2014,08,04,15,47,34.30
2014,08,04,15,48,34.30
2014,08,04,15,49,34.30
2014,08,04,15,50,34.20
2014,08,04,15,51,34.20
2014,08,04,15,52,34.20
2014,08,04,15,53,34.20
2014,08,04,15,54,34.30
2014,08,04,15,55,34.30
2014,08,04,15,56,34.30
2014,08,04,15,57,34.40
2014,08,04,15,58,34.40
2014,08,04,15,59,34.60
2014,08,04,16,00,34.60
2014,08,04,16,01,34.40
2014,08,04,16,02,34.40
2014,08,04,16,03,34.60
2014,08,04,16,04,34.60
2014,08,04,16,05,34.40
2014,08,04,16,06,34.40
2014,08,04,16,07,34.40
2014,08,04,16,08,34.30
2014,08,04,16,09,34.40
2014,08,04,16,10,34.40
2014,08,04,16,11,34.40
2014,08,04,16,12,34.40
2014,08,04,16,13,34.60
2014,08,04,16,14,34.60
2014,08,04,16,15,34.60
2014,08,04,16,16,34.60
2014,08,04,16,17,34.60
2014,08,04,16,18,34.60
2014,08,04,16,19,34.60
2014,08,04,16,20,34.60
2014,08,04,16,21,34.40
2014,08,04,16,22,34.30
2014,08,04,16,23,34.20
2014,08,04,16,24,34.10
2014,08,04,16,25,33.80
2014,08,04,16,26,33.60
2014,08,04,16,27,33.40
2014,08,04,16,28,33.00
2014,08,04,16,29,32.80
2014,08,04,16,30,32.60
2014,08,04,16,31,32.50
2014,08,04,16,32,32.30
2014,08,04,16,33,32.20
2014,08,04,16,34,32.20
2014,08,04,16,35,32.10
2014,08,04,16,36,31.90
2014,08,04,16,37,31.90
2014,08,04,16,38,31.90
2014,08,04,16,39,31.80
2014,08,04,16,40,31.70
2014,08,04,16,41,31.70
2014,08,04,16,42,31.60
2014,08,04,16,43,31.60
2014,08,04,16,44,31.60
2014,08,04,16,45,31.70
2014,08,04,16,46,31.70
2014,08,04,16,47,31.70
2014,08,04,16,48,31.80
2014,08,04,16,49,31.80
2014,08,04,16,50,31.90
2014,08,04,16,51,31.90
2014,08,04,16,52,31.80
2014,08,04,16,53,31.90
2014,08,04,16,54,31.90
2014,08,04,16,55,31.90
2014,08,04,16,56,31.90
2014,08,04,16,57,31.80
2014,08,04,16,58,31.90
2014,08,04,16,59,31.90
2014,08,04,17,00,31.90
2014,08,04,17,01,31.90
2014,08,04,17,02,31.90
2014,08,04,17,03,32.10
2014,08,04,17,04,32.10
2014,08,04,17,05,31.90
2014,08,04,17,06,31.80
2014,08,04,17,07,31.80
2014,08,04,17,08,31.70
2014,08,04,17,09,31.70
2014,08,04,17,10,31.70
2014,08,04,17,11,31.80
2014,08,04,17,12,31.80
2014,08,04,17,13,31.90
2014,08,04,17,14,31.90
2014,08,04,17,15,31.80
2014,08,04,17,16,31.80
2014,08,04,17,17,31.80
2014,08,04,17,18,31.80
2014,08,04,17,19,31.80
2014,08,04,17,20,31.80
2014,08,04,17,21,31.80
2014,08,04,17,22,31.80
2014,08,04,17,23,31.80
2014,08,04,17,24,31.80
2014,08,04,17,25,31.80
2014,08,04,17,26,31.90
2014,08,04,17,27,31.90
2014,08,04,17,28,31.90
2014,08,04,17,29,31.90
2014,08,04,17,30,31.80
2014,08,04,17,31,31.80
2014,08,04,17,32,31.80
2014,08,04,17,33,31.80
2014,08,04,17,34,31.80
2014,08,04,17,35,31.80
2014,08,04,17,36,31.80
2014,08,04,17,37,31.60
2014,08,04,17,38,31.40
2014,08,04,17,39,31.40
2014,08,04,17,40,31.30
2014,08,04,17,41,31.30
2014,08,04,17,42,31.20
2014,08,04,17,43,31.20
2014,08,04,17,44,31.10
2014,08,04,17,45,30.90
2014,08,04,17,46,30.80
2014,08,04,17,47,30.60
2014,08,04,17,48,30.30
2014,08,04,17,49,30.10
2014,08,04,17,50,29.90
2014,08,04,17,51,29.80
2014,08,04,17,52,29.80
2014,08,04,17,53,29.80
2014,08,04,17,54,29.80
2014,08,04,17,55,29.80
2014,08,04,17,56,29.80
2014,08,04,17,57,29.80
2014,08,04,17,58,29.80
2014,08,04,17,59,29.80
2014,08,04,18,00,29.70
2014,08,04,18,01,29.70
2014,08,04,18,02,29.60
2014,08,04,18,03,29.60
2014,08,04,18,04,29.40
2014,08,04,18,05,29.30
2014,08,04,18,06,29.20
2014,08,04,18,07,29.10
2014,08,04,18,08,28.90
2014,08,04,18,09,28.70
2014,08,04,18,10,28.60
2014,08,04,18,11,28.40
2014,08,04,18,12,28.30
2014,08,04,18,13,28.20
2014,08,04,18,14,28.10
2014,08,04,18,15,28.10
2014,08,04,18,16,28.00
2014,08,04,18,17,28.00
2014,08,04,18,18,27.90
2014,08,04,18,19,27.80
2014,08,04,18,20,27.80
2014,08,04,18,21,27.70
2014,08,04,18,22,27.70
2014,08,04,18,23,27.60
2014,08,04,18,24,27.60
2014,08,04,18,25,27.60
2014,08,04,18,26,27.60
2014,08,04,18,27,27.60
2014,08,04,18,28,27.40
2014,08,04,18,29,27.40
2014,08,04,18,30,27.30
2014,08,04,18,31,27.30
2014,08,04,18,32,27.30
2014,08,04,18,33,27.30
2014,08,04,18,34,27.30
2014,08,04,18,35,27.30
2014,08,04,18,36,27.30
2014,08,04,18,37,27.30
2014,08,04,18,38,27.20
2014,08,04,18,39,27.20
2014,08,04,18,40,27.30
2014,08,04,18,41,27.30
2014,08,04,18,42,27.30
2014,08,04,18,43,27.30
2014,08,04,18,44,27.30
2014,08,04,18,45,27.30
2014,08,04,18,46,27.30
2014,08,04,18,47,27.20
2014,08,04,18,48,27.20
2014,08,04,18,49,27.20
2014,08,04,18,50,27.10
2014,08,04,18,51,27.10
2014,08,04,18,52,26.90
2014,08,04,18,53,26.90
2014,08,04,18,54,26.90
2014,08,04,18,55,26.90
2014,08,04,18,56,27.10
2014,08,04,18,57,27.10
2014,08,04,18,58,27.10
2014,08,04,18,59,27.10
2014,08,04,19,00,27.10
2014,08,04,19,01,27.10
2014,08,04,19,02,27.10
2014,08,04,19,03,27.10
2014,08,04,19,04,27.10
2014,08,04,19,05,26.90
2014,08,04,19,06,26.80
2014,08,04,19,07,26.80
2014,08,04,19,08,26.80
2014,08,04,19,09,26.70
2014,08,04,19,10,26.70
2014,08,04,19,11,26.70
2014,08,04,19,12,26.70
2014,08,04,19,13,26.60
2014,08,04,19,14,26.60
2014,08,04,19,15,26.60
2014,08,04,19,16,26.60
2014,08,04,19,17,26.60
2014,08,04,19,18,26.40
2014,08,04,19,19,26.40
2014,08,04,19,20,26.40
2014,08,04,19,21,26.40
2014,08,04,19,22,26.60
2014,08,04,19,23,26.60
2014,08,04,19,24,26.60
2014,08,04,19,25,26.60
2014,08,04,19,26,26.60
2014,08,04,19,27,26.60
2014,08,04,19,28,26.60
2014,08,04,19,29,26.60
2014,08,04,19,30,26.60
2014,08,04,19,31,26.60
2014,08,04,19,32,26.40
2014,08,04,19,33,26.40
2014,08,04,19,34,26.40
2014,08,04,19,35,26.30
2014,08,04,19,36,26.30
2014,08,04,19,37,26.30
2014,08,04,19,38,26.20
2014,08,04,19,39,26.20
2014,08,04,19,40,26.10
2014,08,04,19,41,26.00
2014,08,04,19,42,26.00
2014,08,04,19,43,26.00
2014,08,04,19,44,26.00
2014,08,04,19,45,26.00
2014,08,04,19,46,26.00
2014,08,04,19,47,26.00
2014,08,04,19,48,26.00
2014,08,04,19,49,26.00
2014,08,04,19,51,26.00
2014,08,04,19,52,26.00
2014,08,04,19,53,26.00
